Project,Study,Ord_Occ,Event_Num,Cast_ID,Date_Time_UTC,Date_Time_PST,Lat_Dec,Lon_Dec,Sta_ID,Line,Sta,Depth,Pressure,PrQ,Temp1,Temp1Q,Temp2,Temp2Q,TempAve,Salt1,Salt1Q,Salt1_Corr,Salt2,Salt2Q,Salt2_Corr,SaltAve_Corr,Ox1,Ox1Q,Ox1_CruiseCorr,Ox1_StaCorr,Ox2,Ox2Q,Ox2_CruiseCorr,Ox2_StaCorr,OxAve_StaCorr,Ox1uM,Ox1uM_CruiseCorr,Ox1uM_StaCorr,Ox2uM,Ox2uM_CruiseCorr,Ox2uM_StaCorr,OxAveuM_StaCorr,FluorV,FluorQ,EstChl_CruiseCorr,EstChl_StaCorr,ISUSV,ISUSQ,EstNO3_CruiseCorr,EstNO3_StaCorr,SigThetaTS1,SigThetaTS1Q,SigThetaTS2,SigThetaTS2Q,BAT,XMiss,TransQ,pH,pHQ,SPAR,SPARQ,PAR,PARQ,PoT1,PoT2,DynHt,SVA,OxSat1,OxSat2,BTL_Depth,BTL_Temp,SaltB,OxB,OxBuM,Chl-a,Phaeo,NO3,NO2,NH4,PO4,SIL
CalCOFI,2101RL,023,,2101_023u,21-Jan-2021 13:32:29,21-Jan-2021 05:32:29,32.08940,-120.63706,090.0 070.0,090.0,070.0,517.000,521.287,,6.1450,,6.1447,,6.1449,34.3037,,34.3095,34.2994,,34.3014,34.3055,0.2848,,0.2980,0.3131,0.2906,,0.3066,0.3258,0.3195,12.386,13.2259,13.7257,12.638,14.2258,14.2777,14.0017,0.0308,,,, ,, , ,26.9899,,26.9865,,0.6898,84.1600,,,,3.7824E+00,,1.0000E-12,,6.0990,6.0987,0.8962,113.233,4.118,4.201,,,,,,,,,,,,
CalCOFI,2101RL,023,,2101_023u,21-Jan-2021 13:32:31,21-Jan-2021 05:32:31,32.08940,-120.63706,090.0 070.0,090.0,070.0,516.000,520.278,,6.1498,,6.1513,,6.1506,34.3038,,34.3096,34.2999,,34.3019,34.3058,0.2850,,0.2982,0.3133,0.2944,,0.3107,0.3298,0.3216,12.395,13.2353,13.7351,12.804,14.2358,14.4532,14.0942,0.0328,,,, ,, , ,26.9893,,26.9860,,0.6898,84.1600,,,,3.5783E+00,,1.0000E-12,,6.1038,6.1054,0.8962,113.278,4.121,4.257,,,,,,,,,,,,
CalCOFI,2101RL,023,,2101_023u,21-Jan-2021 13:33:16,21-Jan-2021 05:33:16,32.08940,-120.63698,090.0 070.0,090.0,070.0,515.000,519.268,,6.1548,,6.1563,,6.1556,34.3040,,34.3098,34.2999,,34.3019,34.3059,0.2848,,0.2980,0.3131,0.2902,,0.3062,0.3253,0.3192,12.387,13.2269,13.7268,12.618,14.2269,14.2566,13.9917,0.0324,,,, ,, , ,26.9888,,26.9854,,0.6899,84.1576,,,,3.2552E+00,,1.0000E-12,,6.1089,6.1104,0.9005,113.317,4.119,4.196,515,,34.2957,0.297,12.97,,,,,,,
CalCOFI,2101RL,023,,2101_023u,21-Jan-2021 13:33:44,21-Jan-2021 05:33:44,32.08944,-120.63700,090.0 070.0,090.0,070.0,514.000,518.259,,6.1583,,6.1591,,6.1587,34.3042,,34.3100,34.3001,,34.3021,34.3061,0.2850,,0.2982,0.3133,0.2931,,0.3093,0.3284,0.3209,12.395,13.2353,13.7351,12.745,14.2358,14.3908,14.0630,0.0328,,,, ,, , ,26.9885,,26.9852,,0.6898,84.1600,,,,2.9917E+00,,1.0000E-12,,6.1125,6.1133,0.9033,113.337,4.122,4.238,,,,,,,,,,,,
CalCOFI,2101RL,023,,2101_023u,21-Jan-2021 13:33:47,21-Jan-2021 05:33:47,32.08944,-120.63700,090.0 070.0,090.0,070.0,513.000,517.249,,6.1599,,6.1603,,6.1601,34.3043,,34.3101,34.3002,,34.3022,34.3062,0.2850,,0.2982,0.3133,0.2879,,0.3038,0.3229,0.3181,12.393,13.2332,13.7330,12.520,14.2336,14.1530,13.9430,0.0330,,,, ,, , ,26.9884,,26.9851,,0.6898,84.1600,,,,3.5837E+00,,1.0000E-12,,6.1142,6.1146,0.9034,113.332,4.121,4.164,,,,,,,,,,,,
CalCOFI,2101RL,023,,2101_023u,21-Jan-2021 13:33:50,21-Jan-2021 05:33:50,32.08944,-120.63700,090.0 070.0,090.0,070.0,512.000,516.239,,6.1630,,6.1651,,6.1641,34.3044,,34.3102,34.3007,,34.3027,34.3065,0.2849,,0.2981,0.3132,0.2922,,0.3083,0.3275,0.3204,12.390,13.2301,13.7299,12.707,14.2303,14.3507,14.0403,0.0325,,,, ,, , ,26.9881,,26.9848,,0.6898,84.1600,,,,3.6993E+00,,1.0000E-12,,6.1174,6.1194,0.9034,113.352,4.121,4.226,,,,,,,,,,,,
CalCOFI,2101RL,023,,2101_023u,21-Jan-2021 13:33:51,21-Jan-2021 05:33:51,32.08945,-120.63700,090.0 070.0,090.0,070.0,511.000,515.230,,6.1695,,6.1763,,6.1729,34.3050,,34.3108,34.3016,,34.3036,34.3072,0.2849,,0.2981,0.3132,0.2908,,0.3069,0.3260,0.3196,12.387,13.2269,13.7268,12.647,14.2269,14.2872,14.0070,0.0330,,,, ,, , ,26.9877,,26.9842,,0.6923,84.1064,,,,3.6947E+00,,1.0000E-12,,6.1239,6.1307,0.9034,113.386,4.120,4.207,,,,,,,,,,,,
CalCOFI,2101RL,023,,2101_023u,21-Jan-2021 13:33:52,21-Jan-2021 05:33:52,32.08946,-120.63700,090.0 070.0,090.0,070.0,510.000,514.220,,6.1822,,6.1844,,6.1833,34.3057,,34.3115,34.3020,,34.3040,34.3078,0.2847,,0.2979,0.3130,0.2884,,0.3043,0.3234,0.3182,12.381,13.2206,13.7205,12.542,14.2203,14.1762,13.9484,0.0325,,,, ,, , ,26.9866,,26.9834,,0.6904,84.1472,,,,3.6947E+00,,1.0000E-12,,6.1367,6.1389,0.9034,113.490,4.120,4.173,,,,,,,,,,,,
CalCOFI,2101RL,023,,2101_023u,21-Jan-2021 13:33:52,21-Jan-2021 05:33:52,32.08946,-120.63700,090.0 070.0,090.0,070.0,509.000,513.211,,6.1876,,6.1880,,6.1878,34.3061,,34.3119,34.3020,,34.3040,34.3080,0.2846,,0.2978,0.3129,0.2916,,0.3077,0.3268,0.3199,12.378,13.2175,13.7174,12.683,14.2169,14.3253,14.0214,0.0327,,,, ,, , ,26.9863,,26.9830,,0.6898,84.1597,,,,3.6947E+00,,1.0000E-12,,6.1421,6.1425,0.9034,113.511,4.119,4.220,,,,,,,,,,,,
CalCOFI,2101RL,023,,2101_023u,21-Jan-2021 13:33:54,21-Jan-2021 05:33:54,32.08947,-120.63700,090.0 070.0,090.0,070.0,508.000,512.201,,6.1899,,6.1897,,6.1898,34.3063,,34.3121,34.3023,,34.3043,34.3082,0.2846,,0.2978,0.3129,0.2915,,0.3076,0.3267,0.3198,12.376,13.2154,13.7153,12.677,14.2147,14.3189,14.0171,0.0331,,,, ,, , ,26.9861,,26.9829,,0.6898,84.1600,,,,3.6947E+00,,1.0000E-12,,6.1445,6.1443,0.9034,113.515,4.118,4.219,,,,,,,,,,,,
CalCOFI,2101RL,023,,2101_023u,21-Jan-2021 13:33:55,21-Jan-2021 05:33:55,32.08948,-120.63700,090.0 070.0,090.0,070.0,507.000,511.192,,6.1896,,6.1932,,6.1914,34.3065,,34.3123,34.3026,,34.3046,34.3085,0.2860,,0.2992,0.3143,0.2883,,0.3042,0.3233,0.3188,12.436,13.2782,13.7778,12.538,14.2814,14.1720,13.9749,0.0321,,,, ,, , ,26.9862,,26.9827,,0.6898,84.1600,,,,3.6947E+00,,1.0000E-12,,6.1443,6.1479,0.9034,113.488,4.139,4.173,,,,,,,,,,,,
CalCOFI,2101RL,023,,2101_023u,21-Jan-2021 13:33:56,21-Jan-2021 05:33:56,32.08948,-120.63700,090.0 070.0,090.0,070.0,506.000,510.182,,6.1954,,6.1969,,6.1962,34.3065,,34.3123,34.3025,,34.3045,34.3084,0.2929,,0.3064,0.3215,0.2943,,0.3106,0.3297,0.3256,12.737,13.5933,14.0909,12.799,14.6162,14.4479,14.2694,0.0327,,,, ,, , ,26.9855,,26.9821,,0.6898,84.1600,,,,3.6947E+00,,1.0000E-12,,6.1502,6.1517,0.9034,113.549,4.239,4.260,,,,,,,,,,,,
CalCOFI,2101RL,023,,2101_023u,21-Jan-2021 13:33:57,21-Jan-2021 05:33:57,32.08948,-120.63700,090.0 070.0,090.0,070.0,505.000,509.173,,6.2030,,6.2062,,6.2046,34.3063,,34.3121,34.3019,,34.3039,34.3080,0.2887,,0.3021,0.3171,0.2962,,0.3126,0.3317,0.3244,12.556,13.4038,13.9026,12.879,14.4149,14.5325,14.2176,0.0325,,,, ,, , ,26.9844,,26.9805,,0.6898,84.1600,,,,3.6183E+00,,1.0000E-12,,6.1578,6.1611,0.9034,113.650,4.180,4.287,,,,,,,,,,,,
CalCOFI,2101RL,023,,2101_023u,21-Jan-2021 13:33:58,21-Jan-2021 05:33:58,32.08948,-120.63700,090.0 070.0,090.0,070.0,504.000,508.163,,6.2238,,6.2248,,6.2243,34.3061,,34.3119,34.3022,,34.3042,34.3081,0.2881,,0.3014,0.3165,0.2952,,0.3115,0.3306,0.3236,12.529,13.3756,13.8745,12.838,14.3849,14.4891,14.1818,0.0329,,,, ,, , ,26.9816,,26.9783,,0.6898,84.1600,,,,3.6916E+00,,1.0000E-12,,6.1787,6.1797,0.9034,113.927,4.173,4.276,,,,,,,,,,,,
CalCOFI,2101RL,023,,2101_023u,21-Jan-2021 13:34:00,21-Jan-2021 05:34:00,32.08947,-120.63701,090.0 070.0,090.0,070.0,503.000,507.154,,6.2295,,6.2279,,6.2287,34.3078,,34.3136,34.3021,,34.3041,34.3089,0.2883,,0.3016,0.3167,0.2933,,0.3095,0.3286,0.3227,12.538,13.3850,13.8839,12.756,14.3949,14.4025,14.1432,0.0330,,,, ,, , ,26.9822,,26.9778,,0.6895,84.1665,,,,3.6947E+00,,1.0000E-12,,6.1844,6.1828,0.9034,113.860,4.177,4.249,,,,,,,,,,,,
CalCOFI,2101RL,023,,2101_023u,21-Jan-2021 13:34:02,21-Jan-2021 05:34:02,32.08946,-120.63702,090.0 070.0,090.0,070.0,502.000,506.144,,6.2448,,6.2464,,6.2456,34.3066,,34.3124,34.3019,,34.3039,34.3082,0.2951,,0.3088,0.3238,0.2945,,0.3108,0.3299,0.3269,12.834,13.6948,14.1918,12.805,14.7240,14.4542,14.3230,0.0312,,,, ,, , ,26.9792,,26.9753,,0.6898,84.1595,,,,3.6947E+00,,1.0000E-12,,6.1998,6.2014,0.9034,114.143,4.276,4.267,,,,,,,,,,,,
CalCOFI,2101RL,023,,2101_023u,21-Jan-2021 13:34:04,21-Jan-2021 05:34:04,32.08946,-120.63702,090.0 070.0,090.0,070.0,501.000,505.135,,6.2521,,6.2688,,6.2605,34.3074,,34.3132,34.3035,,34.3055,34.3094,0.2944,,0.3080,0.3231,0.3037,,0.3206,0.3396,0.3314,12.803,13.6624,14.1595,13.205,14.6895,14.8771,14.5183,0.0324,,,, ,, , ,26.9789,,26.9737,,0.6898,84.1600,,,,3.6947E+00,,1.0000E-12,,6.2071,6.2238,0.9034,114.168,4.267,4.403,,,,,,,,,,,,
CalCOFI,2101RL,023,,2101_023u,21-Jan-2021 13:34:05,21-Jan-2021 05:34:05,32.08948,-120.63702,090.0 070.0,090.0,070.0,500.000,504.125,,6.2926,,6.2984,,6.2955,34.3068,,34.3126,34.3025,,34.3045,34.3086,0.3005,,0.3144,0.3294,0.3048,,0.3217,0.3408,0.3351,13.067,13.9387,14.4342,13.256,14.9831,14.9310,14.6826,0.0333,,,, ,, , ,26.9732,,26.9691,,0.6898,84.1600,,,,3.6947E+00,,1.0000E-12,,6.2476,6.2534,0.9034,114.739,4.359,4.422,,,,,,,,,,,,
CalCOFI,2101RL,023,,2101_023u,21-Jan-2021 13:34:06,21-Jan-2021 05:34:06,32.08948,-120.63702,090.0 070.0,090.0,070.0,499.000,503.116,,6.3002,,6.2973,,6.2988,34.3055,,34.3113,34.3019,,34.3039,34.3076,0.3003,,0.3142,0.3292,0.3103,,0.3276,0.3466,0.3379,13.060,13.9314,14.4269,13.493,14.9753,15.1815,14.8042,0.0324,,,, ,, , ,26.9712,,26.9687,,0.6901,84.1541,,,,3.6947E+00,,1.0000E-12,,6.2552,6.2524,0.9034,114.921,4.357,4.501,,,,,,,,,,,,
CalCOFI,2101RL,023,,2101_023u,21-Jan-2021 13:34:07,21-Jan-2021 05:34:07,32.08948,-120.63702,090.0 070.0,090.0,070.0,498.000,502.106,,6.3102,,6.3140,,6.3121,34.3058,,34.3116,34.3016,,34.3036,34.3076,0.2991,,0.3129,0.3280,0.3069,,0.3240,0.3430,0.3355,13.006,13.8749,14.3707,13.346,14.9153,15.0261,14.6984,0.0323,,,, ,, , ,26.9701,,26.9664,,0.6898,84.1599,,,,3.6947E+00,,1.0000E-12,,6.2653,6.2691,0.9034,115.020,4.340,4.454,,,,,,,,,,,,
CalCOFI,2101RL,023,,2101_023u,21-Jan-2021 13:34:08,21-Jan-2021 05:34:08,32.08948,-120.63700,090.0 070.0,090.0,070.0,497.000,501.097,,6.3214,,6.3187,,6.3201,34.3060,,34.3118,34.3014,,34.3034,34.3076,0.3003,,0.3142,0.3292,0.2988,,0.3154,0.3344,0.3318,13.060,13.9314,14.4269,12.993,14.9753,14.6530,14.5400,0.0328,,,, ,, , ,26.9688,,26.9655,,0.6897,84.1617,,,,3.1039E+00,,1.0000E-12,,6.2766,6.2739,0.9034,115.141,4.359,4.337,,,,,,,,,,,,
CalCOFI,2101RL,023,,2101_023u,21-Jan-2021 13:34:09,21-Jan-2021 05:34:09,32.08948,-120.63700,090.0 070.0,090.0,070.0,496.000,500.088,,6.3246,,6.3329,,6.3288,34.3064,,34.3122,34.3022,,34.3042,34.3082,0.2994,,0.3133,0.3283,0.3045,,0.3214,0.3405,0.3344,13.019,13.8885,14.3842,13.244,14.9297,14.9183,14.6513,0.0329,,,, ,, , ,26.9687,,26.9643,,0.6900,84.1561,,,,3.6948E+00,,1.0000E-12,,6.2798,6.2881,0.9034,115.140,4.346,4.422,,,,,,,,,,,,
CalCOFI,2101RL,023,,2101_023u,21-Jan-2021 13:34:10,21-Jan-2021 05:34:10,32.08948,-120.63701,090.0 070.0,090.0,070.0,495.000,499.078,,6.3363,,6.3409,,6.3386,34.3064,,34.3122,34.3021,,34.3041,34.3082,0.3084,,0.3227,0.3376,0.3117,,0.3291,0.3481,0.3429,13.410,14.2978,14.7910,13.553,15.3645,15.2449,15.0180,0.0325,,,, ,, , ,26.9672,,26.9632,,0.6898,84.1600,,,,3.6947E+00,,1.0000E-12,,6.2916,6.2962,0.9034,115.279,4.478,4.526,,,,,,,,,,,,
CalCOFI,2101RL,023,,2101_023u,21-Jan-2021 13:34:11,21-Jan-2021 05:34:11,32.08948,-120.63702,090.0 070.0,090.0,070.0,494.000,498.069,,6.3403,,6.3475,,6.3439,34.3052,,34.3110,34.2990,,34.3010,34.3060,0.3139,,0.3284,0.3433,0.3167,,0.3344,0.3533,0.3483,13.651,14.5501,15.0417,13.771,15.6325,15.4754,15.2586,0.0329,,,, ,, , ,26.9657,,26.9599,,0.6898,84.1600,,,,3.6947E+00,,1.0000E-12,,6.2956,6.3028,0.9034,115.411,4.559,4.599,,,,,,,,,,,,
CalCOFI,2101RL,023,,2101_023u,21-Jan-2021 13:34:12,21-Jan-2021 05:34:12,32.08948,-120.63702,090.0 070.0,090.0,070.0,493.000,497.059,,6.3483,,6.3514,,6.3499,34.3007,,34.3065,34.2953,,34.2973,34.3019,0.3168,,0.3315,0.3464,0.3187,,0.3365,0.3555,0.3510,13.778,14.6830,15.1738,13.858,15.7738,15.5674,15.3706,0.0325,,,, ,, , ,26.9611,,26.9564,,0.6898,84.1600,,,,3.6947E+00,,1.0000E-12,,6.3037,6.3068,0.9034,115.835,4.602,4.629,,,,,,,,,,,,
CalCOFI,2101RL,023,,2101_023u,21-Jan-2021 13:34:13,21-Jan-2021 05:34:13,32.08948,-120.63702,090.0 070.0,090.0,070.0,492.000,496.050,,6.3553,,6.3571,,6.3562,34.2984,,34.3042,34.2941,,34.2961,34.3002,0.3180,,0.3327,0.3476,0.3177,,0.3354,0.3544,0.3510,13.830,14.7374,15.2279,13.814,15.8316,15.5208,15.3744,0.0320,,,, ,, , ,26.9584,,26.9547,,0.6898,84.1600,,,,3.6947E+00,,1.0000E-12,,6.3108,6.3126,0.9034,116.089,4.620,4.615,,,,,,,,,,,,
CalCOFI,2101RL,023,,2101_023u,21-Jan-2021 13:34:14,21-Jan-2021 05:34:14,32.08946,-120.63702,090.0 070.0,090.0,070.0,491.000,495.040,,6.3576,,6.3584,,6.3580,34.2979,,34.3037,34.2936,,34.2956,34.2997,0.3184,,0.3331,0.3480,0.3201,,0.3380,0.3569,0.3525,13.846,14.7542,15.2445,13.919,15.8494,15.6318,15.4382,0.0315,,,, ,, , ,26.9577,,26.9542,,0.6898,84.1600,,,,3.6125E+00,,1.0000E-12,,6.3132,6.3139,0.9034,116.143,4.625,4.650,,,,,,,,,,,,
CalCOFI,2101RL,023,,2101_023u,21-Jan-2021 13:34:16,21-Jan-2021 05:34:16,32.08946,-120.63702,090.0 070.0,090.0,070.0,490.000,494.031,,6.3674,,6.3668,,6.3671,34.2960,,34.3018,34.2920,,34.2940,34.2979,0.3232,,0.3382,0.3530,0.3251,,0.3433,0.3622,0.3576,14.056,14.9740,15.4630,14.138,16.0829,15.8633,15.6632,0.0323,,,, ,, , ,26.9549,,26.9518,,0.6898,84.1600,,,,3.6995E+00,,1.0000E-12,,6.3230,6.3225,0.9034,116.401,4.696,4.724,,,,,,,,,,,,
CalCOFI,2101RL,023,,2101_023u,21-Jan-2021 13:34:17,21-Jan-2021 05:34:17,32.08946,-120.63702,090.0 070.0,090.0,070.0,489.000,493.022,,6.3677,,6.3661,,6.3669,34.2956,,34.3014,34.2923,,34.2943,34.2979,0.3232,,0.3382,0.3530,0.3264,,0.3447,0.3636,0.3583,14.056,14.9740,15.4630,14.196,16.0829,15.9247,15.6939,0.0322,,,, ,, , ,26.9545,,26.9522,,0.6901,84.1541,,,,3.6947E+00,,1.0000E-12,,6.3234,6.3218,0.9034,116.418,4.697,4.743,,,,,,,,,,,,
CalCOFI,2101RL,023,,2101_023u,21-Jan-2021 13:34:18,21-Jan-2021 05:34:18,32.08948,-120.63702,090.0 070.0,090.0,070.0,488.000,492.012,,6.3734,,6.3771,,6.3753,34.2947,,34.3005,34.2902,,34.2922,34.2964,0.3237,,0.3387,0.3535,0.3258,,0.3440,0.3630,0.3583,14.075,14.9939,15.4828,14.168,16.1040,15.8951,15.6890,0.0326,,,, ,, , ,26.9531,,26.9490,,0.6898,84.1599,,,,3.6947E+00,,1.0000E-12,,6.3292,6.3329,0.9034,116.551,4.703,4.735,,,,,,,,,,,,
CalCOFI,2101RL,023,,2101_023u,21-Jan-2021 13:34:19,21-Jan-2021 05:34:19,32.08948,-120.63702,090.0 070.0,090.0,070.0,487.000,491.003,,6.3809,,6.3769,,6.3789,34.2945,,34.3003,34.2904,,34.2924,34.2964,0.3296,,0.3449,0.3597,0.3241,,0.3422,0.3612,0.3605,14.333,15.2640,15.7511,14.095,16.3909,15.8179,15.7845,0.0324,,,, ,, , ,26.9519,,26.9492,,0.6898,84.1600,,,,3.6947E+00,,1.0000E-12,,6.3367,6.3328,0.9034,116.651,4.791,4.711,,,,,,,,,,,,
CalCOFI,2101RL,023,,2101_023u,21-Jan-2021 13:34:20,21-Jan-2021 05:34:20,32.08948,-120.63702,090.0 070.0,090.0,070.0,486.000,489.993,,6.3865,,6.3872,,6.3869,34.2939,,34.2997,34.2898,,34.2918,34.2958,0.3331,,0.3485,0.3633,0.3353,,0.3541,0.3730,0.3682,14.485,15.4231,15.9093,14.580,16.5600,16.3306,16.1200,0.0323,,,, ,, , ,26.9507,,26.9473,,0.6898,84.1600,,,,3.6947E+00,,1.0000E-12,,6.3425,6.3431,0.9034,116.754,4.842,4.873,,,,,,,,,,,,
CalCOFI,2101RL,023,,2101_023u,21-Jan-2021 13:34:22,21-Jan-2021 05:34:22,32.08950,-120.63704,090.0 070.0,090.0,070.0,485.000,488.984,,6.3911,,6.4040,,6.3976,34.2938,,34.2996,34.2891,,34.2911,34.2954,0.3277,,0.3429,0.3577,0.3292,,0.3476,0.3666,0.3622,14.251,15.1781,15.6658,14.316,16.2997,16.0515,15.8587,0.0324,,,, ,, , ,26.9500,,26.9446,,0.6898,84.1600,,,,3.6279E+00,,1.0000E-12,,6.3471,6.3600,0.9034,116.811,4.764,4.787,,,,,,,,,,,,
CalCOFI,2101RL,023,,2101_023u,21-Jan-2021 13:34:23,21-Jan-2021 05:34:23,32.08950,-120.63704,090.0 070.0,090.0,070.0,484.000,487.974,,6.4088,,6.4210,,6.4149,34.2935,,34.2993,34.2892,,34.2912,34.2953,0.3330,,0.3484,0.3632,0.3388,,0.3578,0.3767,0.3700,14.480,15.4179,15.9041,14.732,16.5544,16.4913,16.1977,0.0322,,,, ,, , ,26.9475,,26.9425,,0.6898,84.1600,,,,3.6957E+00,,1.0000E-12,,6.3649,6.3770,0.9034,117.057,4.843,4.928,,,,,,,,,,,,
CalCOFI,2101RL,023,,2101_023u,21-Jan-2021 13:34:24,21-Jan-2021 05:34:24,32.08950,-120.63704,090.0 070.0,090.0,070.0,483.000,486.965,,6.4188,,6.4280,,6.4234,34.2932,,34.2990,34.2892,,34.2912,34.2951,0.3336,,0.3490,0.3638,0.3375,,0.3565,0.3753,0.3696,14.508,15.4472,15.9332,14.677,16.5855,16.4331,16.1832,0.0328,,,, ,, , ,26.9459,,26.9416,,0.6898,84.1600,,,,3.6947E+00,,1.0000E-12,,6.3749,6.3841,0.9034,117.200,4.853,4.911,,,,,,,,,,,,
CalCOFI,2101RL,023,,2101_023u,21-Jan-2021 13:34:25,21-Jan-2021 05:34:25,32.08950,-120.63704,090.0 070.0,090.0,070.0,482.000,485.956,,6.4270,,6.4334,,6.4302,34.2929,,34.2987,34.2889,,34.2909,34.2948,0.3374,,0.3530,0.3678,0.3385,,0.3575,0.3764,0.3721,14.672,15.6188,16.1038,14.722,16.7679,16.4807,16.2923,0.0327,,,, ,, , ,26.9446,,26.9405,,0.6898,84.1600,,,,3.5531E+00,,1.0000E-12,,6.3832,6.3895,0.9034,117.321,4.909,4.926,,,,,,,,,,,,
CalCOFI,2101RL,023,,2101_023u,21-Jan-2021 13:34:26,21-Jan-2021 05:34:26,32.08950,-120.63704,090.0 070.0,090.0,070.0,481.000,484.946,,6.4351,,6.4377,,6.4364,34.2922,,34.2980,34.2880,,34.2900,34.2940,0.3373,,0.3529,0.3677,0.3421,,0.3613,0.3802,0.3740,14.669,15.6157,16.1007,14.876,16.7646,16.6435,16.3721,0.0324,,,, ,, , ,26.9429,,26.9393,,0.6898,84.1600,,,,3.6970E+00,,1.0000E-12,,6.3913,6.3939,0.9034,117.467,4.909,4.978,,,,,,,,,,,,
CalCOFI,2101RL,023,,2101_023u,21-Jan-2021 13:34:27,21-Jan-2021 05:34:27,32.08950,-120.63704,090.0 070.0,090.0,070.0,480.000,483.937,,6.4430,,6.4545,,6.4488,34.2922,,34.2980,34.2883,,34.2903,34.2942,0.3393,,0.3550,0.3698,0.3395,,0.3586,0.3774,0.3736,14.756,15.7068,16.1912,14.763,16.8613,16.5240,16.3576,0.0323,,,, ,, , ,26.9420,,26.9374,,0.6898,84.1600,,,,3.6947E+00,,1.0000E-12,,6.3993,6.4108,0.9034,117.555,4.939,4.942,,,,,,,,,,,,
CalCOFI,2101RL,023,,2101_023u,21-Jan-2021 13:34:28,21-Jan-2021 05:34:28,32.08951,-120.63704,090.0 070.0,090.0,070.0,479.000,482.928,,6.4616,,6.4691,,6.4654,34.2926,,34.2984,34.2891,,34.2911,34.2948,0.3432,,0.3591,0.3738,0.3365,,0.3554,0.3743,0.3741,14.926,15.8847,16.3680,14.635,17.0504,16.3887,16.3784,0.0326,,,, ,, , ,26.9398,,26.9360,,0.6898,84.1600,,,,3.6947E+00,,1.0000E-12,,6.4179,6.4254,0.9034,117.765,4.998,4.901,,,,,,,,,,,,
CalCOFI,2101RL,023,,2101_023u,21-Jan-2021 13:34:29,21-Jan-2021 05:34:29,32.08952,-120.63704,090.0 070.0,090.0,070.0,478.000,481.918,,6.4723,,6.4744,,6.4734,34.2931,,34.2989,34.2893,,34.2913,34.2951,0.3381,,0.3538,0.3685,0.3365,,0.3554,0.3743,0.3714,14.702,15.6503,16.1350,14.633,16.8013,16.3866,16.2608,0.0329,,,, ,, , ,26.9388,,26.9355,,0.6898,84.1600,,,,3.6947E+00,,1.0000E-12,,6.4287,6.4308,0.9034,117.859,4.924,4.901,,,,,,,,,,,,
CalCOFI,2101RL,023,,2101_023u,21-Jan-2021 13:34:29,21-Jan-2021 05:34:29,32.08952,-120.63704,090.0 070.0,090.0,070.0,477.000,480.909,,6.4752,,6.4773,,6.4763,34.2933,,34.2991,34.2894,,34.2914,34.2953,0.3374,,0.3530,0.3678,0.3414,,0.3606,0.3794,0.3736,14.671,15.6178,16.1027,14.845,16.7668,16.6107,16.3567,0.0319,,,, ,, , ,26.9385,,26.9352,,0.6898,84.1600,,,,2.6475E+00,,1.0000E-12,,6.4316,6.4337,0.9034,117.870,4.914,4.972,,,,,,,,,,,,
CalCOFI,2101RL,023,,2101_023u,21-Jan-2021 13:34:30,21-Jan-2021 05:34:30,32.08952,-120.63704,090.0 070.0,090.0,070.0,476.000,479.899,,6.4794,,6.4825,,6.4810,34.2934,,34.2992,34.2893,,34.2913,34.2953,0.3373,,0.3529,0.3677,0.3469,,0.3664,0.3853,0.3765,14.667,15.6136,16.0986,15.087,16.7623,16.8665,16.4826,0.0323,,,, ,, , ,26.9380,,26.9344,,0.6898,84.1600,,,,3.1207E+00,,1.0000E-12,,6.4360,6.4391,0.9034,117.907,4.913,5.054,,,,,,,,,,,,
CalCOFI,2101RL,023,,2101_023u,21-Jan-2021 13:34:31,21-Jan-2021 05:34:31,32.08952,-120.63706,090.0 070.0,090.0,070.0,475.000,478.890,,6.4800,,6.4833,,6.4817,34.2934,,34.2992,34.2888,,34.2908,34.2950,0.3394,,0.3551,0.3699,0.3400,,0.3591,0.3780,0.3740,14.760,15.7110,16.1953,14.784,16.8658,16.5462,16.3708,0.0333,,,, ,, , ,26.9379,,26.9339,,0.6898,84.1600,,,,3.6996E+00,,1.0000E-12,,6.4366,6.4399,0.9034,117.900,4.945,4.953,,,,,,,,,,,,
CalCOFI,2101RL,023,,2101_023u,21-Jan-2021 13:34:33,21-Jan-2021 05:34:33,32.08952,-120.63706,090.0 070.0,090.0,070.0,474.000,477.881,,6.4759,,6.4855,,6.4807,34.2931,,34.2989,34.2891,,34.2911,34.2950,0.3444,,0.3603,0.3751,0.3440,,0.3634,0.3822,0.3787,14.977,15.9381,16.4211,14.962,17.1071,16.7344,16.5778,0.0327,,,, ,, , ,26.9382,,26.9338,,0.6898,84.1600,,,,3.3048E+00,,1.0000E-12,,6.4327,6.4422,0.9034,117.853,5.017,5.013,,,,,,,,,,,,
CalCOFI,2101RL,023,,2101_023u,21-Jan-2021 13:34:34,21-Jan-2021 05:34:34,32.08952,-120.63706,090.0 070.0,090.0,070.0,473.000,476.871,,6.4884,,6.4963,,6.4924,34.2930,,34.2988,34.2887,,34.2907,34.2948,0.3415,,0.3573,0.3720,0.3410,,0.3602,0.3790,0.3755,14.852,15.8073,16.2910,14.831,16.9681,16.5959,16.4435,0.0322,,,, ,, , ,26.9365,,26.9321,,0.6898,84.1600,,,,3.0534E+00,,1.0000E-12,,6.4452,6.4531,0.9034,118.014,4.976,4.970,,,,,,,,,,,,
CalCOFI,2101RL,023,,2101_023u,21-Jan-2021 13:34:35,21-Jan-2021 05:34:35,32.08952,-120.63708,090.0 070.0,090.0,070.0,472.000,475.862,,6.4945,,6.4985,,6.4965,34.2925,,34.2983,34.2885,,34.2905,34.2944,0.3406,,0.3564,0.3711,0.3456,,0.3651,0.3839,0.3775,14.812,15.7654,16.2494,15.032,16.9236,16.8084,16.5289,0.0317,,,, ,, , ,26.9353,,26.9317,,0.6898,84.1600,,,,3.3630E+00,,1.0000E-12,,6.4514,6.4554,0.9034,118.116,4.964,5.038,,,,,,,,,,,,
CalCOFI,2101RL,023,,2101_023u,21-Jan-2021 13:34:36,21-Jan-2021 05:34:36,32.08952,-120.63708,090.0 070.0,090.0,070.0,471.000,474.853,,6.4984,,6.4996,,6.4990,34.2925,,34.2983,34.2886,,34.2906,34.2945,0.3409,,0.3567,0.3714,0.3540,,0.3740,0.3928,0.3821,14.825,15.7790,16.2629,15.397,16.9380,17.1942,16.7286,0.0317,,,, ,, , ,26.9348,,26.9315,,0.6898,84.1600,,,,3.6945E+00,,1.0000E-12,,6.4553,6.4566,0.9034,118.153,4.968,5.160,,,,,,,,,,,,
CalCOFI,2101RL,023,,2101_023u,21-Jan-2021 13:34:37,21-Jan-2021 05:34:37,32.08952,-120.63708,090.0 070.0,090.0,070.0,470.000,473.843,,6.5009,,6.5023,,6.5016,34.2924,,34.2982,34.2884,,34.2904,34.2943,0.3436,,0.3595,0.3742,0.3434,,0.3627,0.3816,0.3779,14.943,15.9025,16.3857,14.934,17.0693,16.7048,16.5453,0.0318,,,, ,, , ,26.9344,,26.9310,,0.6898,84.1600,,,,3.3681E+00,,1.0000E-12,,6.4580,6.4594,0.9034,118.184,5.008,5.005,,,,,,,,,,,,
CalCOFI,2101RL,023,,2101_023u,21-Jan-2021 13:34:38,21-Jan-2021 05:34:38,32.08952,-120.63708,090.0 070.0,090.0,070.0,469.000,472.834,,6.5023,,6.5034,,6.5029,34.2922,,34.2980,34.2882,,34.2902,34.2941,0.3479,,0.3640,0.3787,0.3474,,0.3670,0.3858,0.3823,15.132,16.1004,16.5823,15.108,17.2794,16.8887,16.7355,0.0316,,,, ,, , ,26.9340,,26.9307,,0.6898,84.1600,,,,3.2538E+00,,1.0000E-12,,6.4595,6.4605,0.9034,118.200,5.071,5.064,,,,,,,,,,,,
CalCOFI,2101RL,023,,2101_023u,21-Jan-2021 13:34:39,21-Jan-2021 05:34:39,32.08952,-120.63708,090.0 070.0,090.0,070.0,468.000,471.825,,6.5025,,6.5035,,6.5030,34.2922,,34.2980,34.2881,,34.2901,34.2941,0.3453,,0.3613,0.3760,0.3444,,0.3638,0.3826,0.3793,15.018,15.9810,16.4637,14.978,17.1527,16.7513,16.6075,0.0327,,,, ,, , ,26.9340,,26.9306,,0.6898,84.1600,,,,2.8867E+00,,1.0000E-12,,6.4597,6.4607,0.9034,118.195,5.034,5.020,,,,,,,,,,,,
CalCOFI,2101RL,023,,2101_023u,21-Jan-2021 13:34:40,21-Jan-2021 05:34:40,32.08952,-120.63708,090.0 070.0,090.0,070.0,467.000,470.815,,6.5025,,6.5039,,6.5032,34.2921,,34.2979,34.2878,,34.2898,34.2939,0.3443,,0.3602,0.3750,0.3476,,0.3672,0.3860,0.3805,14.970,15.9308,16.4138,15.117,17.0993,16.8982,16.6560,0.0325,,,, ,, , ,26.9339,,26.9303,,0.6898,84.1600,,,,3.7227E+00,,1.0000E-12,,6.4598,6.4612,0.9034,118.185,5.017,5.067,,,,,,,,,,,,
CalCOFI,2101RL,023,,2101_023u,21-Jan-2021 13:34:41,21-Jan-2021 05:34:41,32.08952,-120.63708,090.0 070.0,090.0,070.0,466.000,469.806,,6.5027,,6.5041,,6.5034,34.2919,,34.2977,34.2876,,34.2896,34.2937,0.3443,,0.3602,0.3750,0.3490,,0.3687,0.3875,0.3813,14.976,15.9371,16.4200,15.178,17.1060,16.9627,16.6914,0.0330,,,, ,, , ,26.9337,,26.9301,,0.6898,84.1600,,,,3.0405E+00,,1.0000E-12,,6.4601,6.4615,0.9034,118.192,5.019,5.087,,,,,,,,,,,,
CalCOFI,2101RL,023,,2101_023u,21-Jan-2021 13:34:42,21-Jan-2021 05:34:42,32.08952,-120.63708,090.0 070.0,090.0,070.0,465.000,468.797,,6.5034,,6.5047,,6.5041,34.2913,,34.2971,34.2872,,34.2892,34.2932,0.3486,,0.3647,0.3794,0.3515,,0.3713,0.3901,0.3848,15.161,16.1307,16.6125,15.287,17.3117,17.0779,16.8452,0.0318,,,, ,, , ,26.9332,,26.9297,,0.6898,84.1600,,,,3.1119E+00,,1.0000E-12,,6.4609,6.4622,0.9034,118.225,5.082,5.124,,,,,,,,,,,,